Location: Bottenau
(48.5138°N, 8.0462°E)
Time: 21:11:52
(UTC+00:00)

ARIANE 5 R/B - Pass Details

Date: 18 April 2021
Orbit: 620 x 656 km, 98.1° (Epoch: 11 May)

Event Time Altitude Azimuth Distance (km) Brightness Sun altitude
Exits shadow 21:46:52 21° 250° (WSW) 1,441 4.5 -26.4°
Maximum altitude 21:47:44 22° 267° (W) 1,393 4.5 -26.4°
Drops below altitude 10° 21:51:11 10° 319° (NW) 2,025 6.1 -26.7°
Sets 21:53:49 0° 334° (NNW) 2,932 7.3 -26.9°
